Location: Unspecified
(48.1170°N, 0.0000°E)
Time: 14:58:55
(UTC+00:00)

JY1SAT - Pass Details

Date: 24 September 2019
Orbit: 572 x 591 km, 97.7° (Epoch: 16 October)

Event Time Altitude Azimuth Distance (km) Brightness Sun altitude
Exits shadow 21:13:44 14° 5° (N) 1,629 ? -31.5°
Drops below altitude 10° 21:14:28 10° 1° (N) 1,900 ? -31.6°
Sets 21:16:43 0° 354° (N) 2,808 ? -31.9°
